Theta_e
316 323 323 324 328 328 328 332 335 336 338 337 337 339 340 341 340 338 339 339 338 336 335 334 331 333 332 331 330 327 318 319 314 314 323 325 323 319 321 319 324 319 319
314 313 315 322 323 321 322 325 330 332 332 336 335 333 336 340 338 338 337 338 334 333 331 331 329 334 331 331 328 326 319 317 317 312 320 323 323 320 317 317 321 324 320
312 313 313 313 317 319 319 319 322 325 330 330 334 334 335 336 335 335 336 334 332 329 330 329 329 328 328 329 328 327 323 324 323 321 320 322 321 323 319 319 319 320 321
310 311 311 312 314 316 319 317 319 320 323 330 330 333 332 333 334 335 335 333 332 333 332 329 329 330 327 326 326 323 324 321 321 320 319 315 317 319 318 315 316 319 321
308 308 308 311 314 314 318 316 317 318 320 322 325 330 332 331 334 331 329 330 332 329 330 329 329 329 329 327 328 325 324 319 320 317 315 314 315 317 316 315 317 318 320
307 307 309 310 313 314 314 316 315 318 318 321 320 323 325 329 317 315 320 327 328 327 325 327 328 326 325 320 319 321 324 322 320 317 316 315 313 315 317 316 315 314 315
306 307 309 309 309 310 313 316 314 315 315 317 318 319 319 322 315 310 312 325 326 326 327 326 327 332 324 328 321 317 316 315 319 323 320 320 321 322 320 319 319 318 316
305 306 308 309 309 309 311 311 313 313 315 314 314 317 317 322 310 310 307 320 322 323 326 327 326 326 327 328 327 325 324 321 320 322 323 324 326 326 326 324 322 320 320
304 304 306 307 307 309 308 308 311 312 312 313 315 314 315 317 307 302 306 318 322 322 325 325 327 328 319 311 323 326 326 325 319 314 315 316 314 312 322 325 321 317 314
303 305 306 307 306 306 307 308 309 312 312 314 315 313 313 313 303 302 311 319 316 318 317 321 315 318 312 307 320 326 323 323 321 320 318 315 312 317 315 324 322 317 315
305 306 306 305 304 305 304 305 306 309 311 310 311 313 314 314 308 301 303 313 313 314 313 314 316 306 301 301 303 326 324 324 319 319 321 320 319 321 323 324 323 321 317
306 306 305 305 306 308 304 305 305 305 307 308 309 311 314 313 307 300 297 301 301 307 309 313 314 303 300 300 301 304 305 308 326 325 323 322 321 321 323 324 324 323 322
305 304 305 306 307 307 304 305 303 303 304 305 307 308 310 312 308 299 299 298 299 302 308 308 301 298 298 303 301 302 304 312 319 321 321 321 321 321 321 320 321 321 319
303 303 304 305 305 305 306 306 303 302 302 304 305 305 307 308 306 304 303 301 302 302 304 303 303 302 300 305 308 307 309 315 317 318 320 322 322 321 319 317 315 315 314
304 303 303 304 303 303 304 304 304 304 303 304 303 304 302 306 304 297 295 298 297 298 298 301 308 311 311 312 316 316 313 314 314 317 317 317 317 319 318 318 317 315 313
302 302 301 301 302 303 302 303 301 299 299 298 296 297 300 298 295 294 294 294 293 293 300 303 305 308 308 308 309 312 315 313 316 316 316 313 312 315 315 316 316 315 313
300 300 301 301 301 301 302 301 302 300 296 295 294 295 294 295 293 293 293 293 291 293 303 301 302 305 305 305 305 306 308 312 315 316 315 313 310 310 308 310 311 312 311
301 300 300 300 301 301 301 302 302 300 299 299 296 294 293 294 294 293 293 292 304 303 305 305 304 303 305 302 303 303 304 305 307 307 309 310 311 310 308 309 309 310 309
300 300 300 300 300 300 300 301 301 301 301 302 302 298 294 293 293 294 293 303 303 302 304 304 305 306 305 305 303 304 303 303 304 305 306 305 306 306 304 305 303 296 299
298 297 297 299 298 298 299 302 300 299 300 300 302 304 302 298 300 301 304 304 303 302 303 305 304 304 305 305 306 306 304 304 304 304 303 305 305 305 303 303 302 302 302
298 297 292 297 300 299 299 303 300 299 301 299 299 297 288 303 302 302 301 302 301 301 302 303 303 303 303 304 304 304 304 304 305 305 305 305 305 304 304 304 303 302 302
297 297 298 299 299 300 301 303 300 300 301 299 299 297 290 301 301 301 301 301 301 302 301 302 302 302 302 302 303 303 302 302 303 303 302 303 303 302 302 302 302 302 301
298 298 299 300 300 296 302 300 299 298 297 297 297 297 297 298 298 299 300 301 300 301 301 301 301 300 302 302 300 299 299 299 299 301 301 300 300 299 299 299 300 299 299
299 299 301 300 298 298 297 296 295 293 295 296 296 296 296 297 297 298 298 299 300 301 301 300 299 298 298 298 298 296 295 295 297 297 299 298 297 297 298 298 298 299 298
297 296 296 296 295 295 295 294 294 295 295 295 296 296 297 297 298 298 299 299 299 299 298 297 297 297 297 296 295 294 288 287 293 290 297 298 298 298 299 298 299 298 298
295 295 294 294 293 293 293 294 294 295 295 296 296 296 297 297 298 298 298 299 297 296 295 295 294 294 294 294 291 286 286 286 292 287 298 298 297 297 297 297 297 296 297
Wind_Speed
7 6 6 5 5 6 6 6 5 5 7 6 5 4 2 2 3 4 5 5 4 5 4 4 7 5 4 4 3 4 3 3 4 2 1 2 3 6 4 4 5 5 5
7 7 6 7 5 5 6 7 7 4 3 4 3 4 5 4 5 4 4 3 4 5 7 6 7 4 7 6 4 5 5 4 4 4 1 2 3 3 4 3 4 4 5
7 7 8 7 7 7 3 5 6 7 4 3 4 1 2 2 4 5 6 7 8 7 7 7 7 7 6 5 5 6 3 2 3 3 4 2 1 2 4 2 4 3 4
8 8 8 8 7 6 5 3 5 5 6 5 4 4 3 4 6 5 5 6 6 7 7 7 7 7 7 7 6 7 5 4 3 4 3 3 3 3 2 3 4 3 4
7 8 8 8 8 7 6 5 4 4 4 5 6 6 4 4 3 4 2 4 6 7 5 6 6 7 9 8 5 6 4 3 2 2 3 3 4 3 5 4 4 3 4
6 7 7 8 8 9 8 7 4 2 4 5 7 6 5 3 5 8 6 5 4 5 6 6 6 8 8 10 9 9 7 5 5 4 4 5 5 5 4 6 4 3 3
8 7 7 7 7 8 8 8 4 4 3 4 6 7 7 6 3 7 9 4 5 5 6 5 5 4 7 6 9 11 9 11 9 9 6 6 7 7 7 5 4 3 4
7 9 10 12 9 7 7 7 10 3 3 2 5 6 7 7 5 7 5 5 5 5 6 8 9 9 9 10 9 8 9 8 9 7 7 7 7 8 6 6 4 4 1
8 6 8 9 10 11 8 6 5 6 6 4 5 6 5 6 8 2 4 5 5 5 5 7 8 10 12 14 11 13 12 10 8 13 13 10 11 11 11 8 7 1 3
6 7 6 6 6 7 8 8 5 5 6 6 7 6 7 6 5 3 5 2 3 2 4 4 9 12 14 13 9 10 10 12 7 5 5 4 5 3 12 8 8 7 5
6 6 7 7 7 7 7 5 5 6 7 7 7 7 7 7 5 8 5 2 1 2 3 4 5 11 9 11 12 9 11 8 7 7 6 4 4 6 5 7 11 12 8
7 7 8 7 7 8 7 6 6 6 6 6 7 8 8 8 6 9 6 5 4 2 4 4 5 10 15 13 5 13 15 10 8 8 8 9 8 9 11 13 16 14 12
7 7 7 7 7 7 6 7 5 5 5 5 5 7 8 7 3 8 5 5 4 1 4 5 8 13 16 9 11 14 12 6 7 6 6 7 8 9 11 7 9 10 7
7 7 6 6 7 6 5 6 5 5 5 5 5 5 4 4 3 6 3 1 3 3 5 6 9 12 15 11 8 6 5 6 6 5 5 5 3 6 8 8 10 11 9
6 6 6 5 6 6 6 5 4 5 5 5 5 3 3 2 3 5 7 6 3 4 6 4 4 3 4 5 4 4 5 5 6 6 5 4 5 8 9 10 9 9 9
5 4 4 5 5 5 5 6 4 7 8 8 8 6 3 3 4 2 8 12 12 7 3 4 4 3 4 4 5 6 5 7 7 7 6 5 3 4 5 6 7 9 9
5 6 5 5 5 4 3 4 7 5 11 10 11 13 13 7 7 7 8 9 15 3 3 4 4 4 2 3 4 4 5 4 5 5 5 4 4 5 4 4 5 6 5
6 8 4 4 4 5 5 5 4 5 4 5 10 12 10 8 4 1 10 7 3 1 2 2 3 3 3 2 3 3 3 3 3 1 2 3 4 5 3 5 6 6 5
6 5 5 6 5 6 5 5 5 5 5 4 5 4 8 8 8 9 7 3 2 2 3 2 2 3 3 2 3 3 3 2 3 4 4 3 3 2 3 3 4 4 5
7 10 8 6 5 6 5 6 5 4 4 4 5 6 4 3 3 4 3 3 2 1 3 1 2 2 3 4 3 2 2 3 3 2 2 7 5 3 3 4 4 5 3
8 9 9 8 7 4 4 6 4 2 3 2 2 3 2 4 4 4 5 4 3 2 3 3 3 3 2 5 4 4 3 2 3 1 2 6 5 4 4 4 3 4 4
9 8 8 7 6 6 5 3 3 4 3 3 3 6 8 5 4 4 3 4 3 3 2 2 2 3 3 4 3 3 4 3 2 0 3 6 5 5 4 5 4 4 3
8 8 7 5 5 6 1 5 5 6 6 6 5 5 6 6 5 4 4 3 3 3 3 4 4 3 3 4 4 4 4 4 4 4 3 6 4 4 4 4 4 3 3
9 9 7 7 8 9 8 7 6 8 7 6 6 6 6 5 4 4 3 3 3 4 3 4 4 5 5 5 4 4 3 3 3 4 4 4 5 4 4 3 3 4 3
8 9 9 8 8 7 8 8 8 8 7 6 5 5 4 4 5 5 5 4 4 4 5 5 4 5 8 7 6 6 5 5 5 6 3 6 5 5 5 4 4 3 3
9 9 8 8 9 8 8 7 7 6 5 6 7 6 5 5 6 5 5 6 5 5 6 6 7 9 8 5 5 3 3 3 2 4 1 3 5 5 5 6 8 5 5
Wind_Direction
41 36 39 24 21 14 3 340 332 348 344 324 290 350 259 169 191 186 210 188 207 230 231 242 252 230 230 237 225 237 230 181 168 283 202 76 100 146 159 162 150 179 179
9 19 12 355 5 16 2 353 345 334 341 4 2 293 278 241 230 206 218 224 246 234 253 242 258 257 244 235 224 245 222 199 155 183 217 145 120 173 160 178 192 187 173
358 3 351 345 346 319 336 344 352 347 314 308 286 251 231 35 301 241 207 199 220 241 235 226 232 234 245 238 225 231 239 204 168 150 176 127 128 216 134 220 218 201 182
355 345 342 325 315 314 289 333 327 333 349 296 286 272 296 299 250 247 247 242 231 235 220 220 229 224 226 237 238 229 216 211 194 158 189 145 153 234 120 158 258 244 191
349 337 319 313 308 307 298 278 294 320 334 340 333 295 275 252 255 224 331 301 246 241 208 232 236 229 229 230 212 232 203 208 208 204 178 141 170 150 193 174 212 232 222
322 306 309 313 316 309 305 272 260 297 339 339 330 325 312 288 216 228 242 257 304 273 241 244 235 236 244 243 239 237 210 193 209 191 200 187 199 187 161 188 200 175 233
308 296 295 308 313 309 315 308 281 296 325 339 335 323 310 296 264 223 242 237 253 256 283 296 292 276 249 234 242 239 243 248 236 212 207 198 186 187 161 160 215 221 204
334 336 339 334 317 318 338 345 309 276 262 254 298 306 317 301 335 274 254 241 213 241 247 254 256 258 251 246 243 238 236 226 225 230 235 219 217 154 177 144 52 241 76
299 303 316 320 317 326 318 317 324 308 303 292 264 270 276 290 317 283 168 250 234 239 235 253 254 262 255 243 239 238 237 240 233 232 223 229 235 183 136 121 138 272 314
297 290 301 314 309 315 321 315 301 277 263 275 283 274 265 264 214 199 197 192 293 58 311 307 286 258 260 258 225 231 226 233 217 219 232 242 235 201 166 135 147 176 186
283 292 292 293 298 290 287 290 301 313 300 291 286 282 277 277 196 203 227 151 122 314 287 284 296 317 321 286 245 231 225 232 219 218 223 218 203 192 193 201 193 188 184
269 267 271 270 274 285 283 284 288 295 300 302 294 292 289 278 217 191 158 109 159 209 255 276 273 296 300 288 269 241 257 225 229 219 214 221 217 225 233 227 228 217 202
268 273 274 279 277 272 270 277 273 266 263 269 270 287 282 286 168 189 165 146 119 1 284 279 277 269 275 299 262 246 249 243 240 228 220 223 215 223 229 219 221 180 152
281 273 277 274 274 274 275 271 259 259 259 248 256 261 276 340 47 337 301 215 62 344 287 288 281 273 271 271 288 238 223 217 207 213 215 227 213 229 231 200 187 173 156
285 286 286 275 285 286 269 253 264 257 239 247 237 226 233 189 183 150 281 304 10 274 308 282 274 272 298 303 282 250 217 224 207 209 204 218 237 245 220 191 192 176 179
301 295 280 285 286 277 283 295 280 239 222 207 201 203 215 178 153 93 319 307 278 266 262 276 288 291 305 316 306 290 258 220 209 199 199 195 192 217 200 187 175 184 182
281 285 277 273 276 292 294 283 291 255 240 237 229 212 201 193 190 173 258 285 282 223 222 277 290 296 288 303 306 300 313 306 249 203 183 178 153 131 139 151 155 160 168
309 298 303 291 287 281 268 265 261 271 260 253 243 229 232 220 290 72 270 290 245 271 286 277 291 308 309 336 319 296 321 318 309 241 141 165 171 166 173 168 171 172 162
317 305 307 297 278 277 281 278 266 274 277 270 263 212 190 183 213 242 266 243 78 305 297 303 354 349 315 9 339 336 328 295 274 272 129 119 100 87 95 104 102 117 123
309 306 305 300 301 290 279 274 275 274 291 278 280 252 163 144 183 202 145 106 107 333 316 9 54 11 359 5 336 345 299 245 252 253 195 116 86 113 115 110 118 130 118
302 295 284 279 280 276 275 294 289 277 299 20 20 350 36 172 116 126 113 106 96 27 344 9 4 12 17 32 358 360 302 358 39 319 152 91 112 123 114 123 140 128 133
286 277 272 268 279 285 279 296 13 332 52 83 56 34 42 47 82 79 83 84 79 47 357 2 38 26 2 46 341 18 2 358 11 69 78 86 99 94 101 99 107 119 137
296 284 282 268 268 261 2 49 38 49 43 44 43 50 51 51 37 37 60 67 68 51 20 38 38 30 18 36 20 19 35 11 338 332 82 93 84 87 90 93 110 101 110
360 14 18 37 42 67 72 66 61 57 54 48 38 40 44 35 42 19 40 48 56 54 54 65 56 38 21 26 22 23 13 359 352 340 62 87 88 94 95 104 115 121 122
24 26 35 39 48 56 63 59 56 51 43 43 36 32 30 36 43 36 31 31 46 47 48 39 41 50 51 32 16 27 11 13 23 349 20 79 98 105 120 115 113 113 119
35 40 44 46 48 50 54 57 57 53 46 42 34 31 28 38 42 30 17 46 44 51 51 38 30 30 25 16 16 23 3 12 47 331 282 122 120 101 93 98 93 87 87